Time,TemperatureF,DewpointF,PressureIn,WindDirection,WindDirectionDegrees,WindSpeedMPH,WindSpeedGustMPH,Humidity,HourlyPrecipIn,Conditions,Clouds,dailyrainin,SoftwareType,DateUTC
2013-01-20 00:00:00,60.0,-99.9,30.22,SE,133,5.0,6.0,-999,-99.99,,,-99.99,,2013-01-20 06:00:00,
2013-01-20 00:34:00,60.0,-99.9,30.22,SE,133,5.0,6.0,-999,-99.99,,,-99.99,,2013-01-20 06:34:00,
2013-01-20 00:43:00,60.0,-99.9,30.22,SE,133,5.0,6.0,-999,-99.99,,,-99.99,,2013-01-20 06:43:00,
2013-01-20 00:53:00,60.0,-99.9,30.22,SE,133,5.0,6.0,-999,-99.99,,,-99.99,,2013-01-20 06:53:00,
2013-01-20 01:00:00,58.0,-99.9,30.21,ESE,105,2.0,3.0,-999,-99.99,,,-99.99,,2013-01-20 07:00:00,
2013-01-20 01:32:00,58.0,-99.9,30.21,ESE,105,2.0,3.0,-999,-99.99,,,-99.99,,2013-01-20 07:32:00,
2013-01-20 01:43:00,58.0,-99.9,30.21,ESE,105,2.0,3.0,-999,-99.99,,,-99.99,,2013-01-20 07:43:00,
2013-01-20 01:52:00,58.0,-99.9,30.21,ESE,105,2.0,3.0,-999,-99.99,,,-99.99,,2013-01-20 07:52:00,
2013-01-20 02:00:00,57.0,-99.9,30.21,South,171,1.0,2.0,-999,-99.99,,,-99.99,,2013-01-20 08:00:00,
2013-01-20 02:32:00,57.0,-99.9,30.21,South,171,1.0,2.0,-999,-99.99,,,-99.99,,2013-01-20 08:32:00,
2013-01-20 02:42:00,57.0,-99.9,30.21,South,171,1.0,2.0,-999,-99.99,,,-99.99,,2013-01-20 08:42:00,
2013-01-20 02:53:00,57.0,-99.9,30.21,South,171,1.0,2.0,-999,-99.99,,,-99.99,,2013-01-20 08:53:00,
2013-01-20 03:00:00,57.0,-99.9,30.19,NE,51,1.0,2.0,-999,-99.99,,,-99.99,,2013-01-20 09:00:00,
2013-01-20 03:33:00,57.0,-99.9,30.19,NE,51,1.0,2.0,-999,-99.99,,,-99.99,,2013-01-20 09:33:00,
2013-01-20 03:43:00,57.0,-99.9,30.19,NE,51,1.0,2.0,-999,-99.99,,,-99.99,,2013-01-20 09:43:00,
2013-01-20 03:53:00,57.0,-99.9,30.19,NE,51,1.0,2.0,-999,-99.99,,,-99.99,,2013-01-20 09:53:00,
2013-01-20 04:00:00,57.0,-99.9,30.19,NNE,26,2.0,2.0,-999,-99.99,,,-99.99,,2013-01-20 10:00:00,
2013-01-20 04:33:00,57.0,-99.9,30.19,NNE,26,2.0,2.0,-999,-99.99,,,-99.99,,2013-01-20 10:33:00,
2013-01-20 04:42:00,57.0,-99.9,30.19,NNE,26,2.0,2.0,-999,-99.99,,,-99.99,,2013-01-20 10:42:00,
2013-01-20 04:53:00,57.0,-99.9,30.19,NNE,26,2.0,2.0,-999,-99.99,,,-99.99,,2013-01-20 10:53:00,
2013-01-20 05:00:00,56.0,-99.9,30.19,NE,40,2.0,3.0,-999,-99.99,,,-99.99,,2013-01-20 11:00:00,
2013-01-20 05:33:00,56.0,-99.9,30.19,NE,40,2.0,3.0,-999,-99.99,,,-99.99,,2013-01-20 11:33:00,
2013-01-20 05:43:00,56.0,-99.9,30.19,NE,40,2.0,3.0,-999,-99.99,,,-99.99,,2013-01-20 11:43:00,
2013-01-20 05:54:00,56.0,-99.9,30.19,NE,40,2.0,3.0,-999,-99.99,,,-99.99,,2013-01-20 11:54:00,
2013-01-20 06:00:00,56.0,-99.9,30.20,NE,41,1.0,2.0,-999,-99.99,,,-99.99,,2013-01-20 12:00:00,
2013-01-20 06:34:00,56.0,-99.9,30.20,NE,41,1.0,2.0,-999,-99.99,,,-99.99,,2013-01-20 12:34:00,
2013-01-20 06:44:00,56.0,-99.9,30.20,NE,41,1.0,2.0,-999,-99.99,,,-99.99,,2013-01-20 12:44:00,
2013-01-20 06:53:00,56.0,-99.9,30.20,NE,41,1.0,2.0,-999,-99.99,,,-99.99,,2013-01-20 12:53:00,
2013-01-20 07:00:00,56.0,-99.9,30.20,ENE,57,4.0,4.0,-999,-99.99,,,-99.99,,2013-01-20 13:00:00,
2013-01-20 07:33:00,56.0,-99.9,30.20,ENE,57,4.0,4.0,-999,-99.99,,,-99.99,,2013-01-20 13:33:00,
2013-01-20 07:43:00,56.0,-99.9,30.20,ENE,57,4.0,4.0,-999,-99.99,,,-99.99,,2013-01-20 13:43:00,
2013-01-20 07:53:00,56.0,-99.9,30.20,ENE,57,4.0,4.0,-999,-99.99,,,-99.99,,2013-01-20 13:53:00,
2013-01-20 08:00:00,56.0,-99.9,30.22,ENE,60,2.0,2.0,-999,-99.99,,,-99.99,,2013-01-20 14:00:00,
2013-01-20 08:33:00,56.0,-99.9,30.22,ENE,60,2.0,2.0,-999,-99.99,,,-99.99,,2013-01-20 14:33:00,
2013-01-20 08:43:00,56.0,-99.9,30.22,ENE,60,2.0,2.0,-999,-99.99,,,-99.99,,2013-01-20 14:43:00,
2013-01-20 08:53:00,56.0,-99.9,30.22,ENE,60,2.0,2.0,-999,-99.99,,,-99.99,,2013-01-20 14:53:00,
2013-01-20 09:00:00,60.0,-99.9,30.24,NE,49,2.0,2.0,-999,-99.99,,,-99.99,,2013-01-20 15:00:00,
2013-01-20 09:33:00,60.0,-99.9,30.24,NE,49,2.0,2.0,-999,-99.99,,,-99.99,,2013-01-20 15:33:00,
2013-01-20 09:43:00,60.0,-99.9,30.24,NE,49,2.0,2.0,-999,-99.99,,,-99.99,,2013-01-20 15:43:00,
2013-01-20 09:53:00,60.0,-99.9,30.24,NE,49,2.0,2.0,-999,-99.99,,,-99.99,,2013-01-20 15:53:00,
2013-01-20 10:00:00,61.0,-99.9,30.25,NNW,330,3.0,4.0,-999,-99.99,,,-99.99,,2013-01-20 16:00:00,
2013-01-20 10:33:00,61.0,-99.9,30.25,NNW,330,3.0,4.0,-999,-99.99,,,-99.99,,2013-01-20 16:33:00,
2013-01-20 10:43:00,61.0,-99.9,30.25,NNW,330,3.0,4.0,-999,-99.99,,,-99.99,,2013-01-20 16:43:00,
2013-01-20 10:53:00,61.0,-99.9,30.25,NNW,330,3.0,4.0,-999,-99.99,,,-99.99,,2013-01-20 16:53:00,
2013-01-20 11:00:00,63.0,-99.9,30.25,NE,42,4.0,5.0,-999,-99.99,,,-99.99,,2013-01-20 17:00:00,
2013-01-20 11:33:00,63.0,-99.9,30.25,NE,42,4.0,5.0,-999,-99.99,,,-99.99,,2013-01-20 17:33:00,
2013-01-20 11:43:00,63.0,-99.9,30.25,NE,42,4.0,5.0,-999,-99.99,,,-99.99,,2013-01-20 17:43:00,
2013-01-20 11:53:00,63.0,-99.9,30.25,NE,42,4.0,5.0,-999,-99.99,,,-99.99,,2013-01-20 17:53:00,
2013-01-20 12:00:00,65.0,-99.9,30.22,ENE,69,7.0,8.0,-999,-99.99,,,-99.99,,2013-01-20 18:00:00,
2013-01-20 12:33:00,65.0,-99.9,30.22,ENE,69,7.0,8.0,-999,-99.99,,,-99.99,,2013-01-20 18:33:00,
2013-01-20 12:43:00,65.0,-99.9,30.22,ENE,69,7.0,8.0,-999,-99.99,,,-99.99,,2013-01-20 18:43:00,
2013-01-20 12:53:00,65.0,-99.9,30.22,ENE,69,7.0,8.0,-999,-99.99,,,-99.99,,2013-01-20 18:53:00,
2013-01-20 13:00:00,65.0,-99.9,30.17,East,93,9.0,11.0,-999,-99.99,,,-99.99,,2013-01-20 19:00:00,
2013-01-20 13:33:00,65.0,-99.9,30.17,East,93,9.0,11.0,-999,-99.99,,,-99.99,,2013-01-20 19:33:00,
2013-01-20 13:43:00,65.0,-99.9,30.17,East,93,9.0,11.0,-999,-99.99,,,-99.99,,2013-01-20 19:43:00,
2013-01-20 13:53:00,65.0,-99.9,30.17,East,93,9.0,11.0,-999,-99.99,,,-99.99,,2013-01-20 19:53:00,
2013-01-20 14:00:00,65.0,-99.9,30.14,ESE,104,9.0,11.0,-999,-99.99,,,-99.99,,2013-01-20 20:00:00,
2013-01-20 14:33:00,65.0,-99.9,30.14,ESE,104,9.0,11.0,-999,-99.99,,,-99.99,,2013-01-20 20:33:00,
2013-01-20 14:43:00,65.0,-99.9,30.14,ESE,104,9.0,11.0,-999,-99.99,,,-99.99,,2013-01-20 20:43:00,
2013-01-20 14:54:00,65.0,-99.9,30.14,ESE,104,9.0,11.0,-999,-99.99,,,-99.99,,2013-01-20 20:54:00,
2013-01-20 15:00:00,65.0,-99.9,30.12,East,89,11.0,12.0,-999,-99.99,,,-99.99,,2013-01-20 21:00:00,
2013-01-20 15:34:00,65.0,-99.9,30.12,East,89,11.0,12.0,-999,-99.99,,,-99.99,,2013-01-20 21:34:00,
2013-01-20 15:43:00,65.0,-99.9,30.12,East,89,11.0,12.0,-999,-99.99,,,-99.99,,2013-01-20 21:43:00,
2013-01-20 15:54:00,65.0,-99.9,30.12,East,89,11.0,12.0,-999,-99.99,,,-99.99,,2013-01-20 21:54:00,
2013-01-20 16:00:00,64.0,-99.9,30.12,East,96,11.0,14.0,-999,-99.99,,,-99.99,,2013-01-20 22:00:00,
2013-01-20 16:34:00,64.0,-99.9,30.12,East,96,11.0,14.0,-999,-99.99,,,-99.99,,2013-01-20 22:34:00,
2013-01-20 16:43:00,64.0,-99.9,30.12,East,96,11.0,14.0,-999,-99.99,,,-99.99,,2013-01-20 22:43:00,
2013-01-20 16:53:00,64.0,-99.9,30.12,East,96,11.0,14.0,-999,-99.99,,,-99.99,,2013-01-20 22:53:00,
2013-01-20 17:00:00,63.0,-99.9,30.12,East,89,11.0,14.0,-999,-99.99,,,-99.99,,2013-01-20 23:00:00,
2013-01-20 17:33:00,63.0,-99.9,30.12,East,89,11.0,14.0,-999,-99.99,,,-99.99,,2013-01-20 23:33:00,
2013-01-20 17:43:00,63.0,-99.9,30.12,East,89,11.0,14.0,-999,-99.99,,,-99.99,,2013-01-20 23:43:00,
2013-01-20 17:53:00,63.0,-99.9,30.12,East,89,11.0,14.0,-999,-99.99,,,-99.99,,2013-01-20 23:53:00,
2013-01-20 18:00:00,62.0,-99.9,30.12,East,94,10.0,11.0,-999,-99.99,,,-99.99,,2013-01-21 00:00:00,
2013-01-20 18:33:00,62.0,-99.9,30.12,East,94,10.0,11.0,-999,-99.99,,,-99.99,,2013-01-21 00:33:00,
2013-01-20 18:43:00,62.0,-99.9,30.12,East,94,10.0,11.0,-999,-99.99,,,-99.99,,2013-01-21 00:43:00,
2013-01-20 18:54:00,62.0,-99.9,30.12,East,94,10.0,11.0,-999,-99.99,,,-99.99,,2013-01-21 00:54:00,
2013-01-20 19:00:00,61.0,-99.9,30.13,East,101,9.0,11.0,-999,-99.99,,,-99.99,,2013-01-21 01:00:00,
2013-01-20 19:33:00,61.0,-99.9,30.13,East,101,9.0,11.0,-999,-99.99,,,-99.99,,2013-01-21 01:33:00,
2013-01-20 19:44:00,61.0,-99.9,30.13,East,101,9.0,11.0,-999,-99.99,,,-99.99,,2013-01-21 01:44:00,
2013-01-20 19:53:00,61.0,-99.9,30.13,East,101,9.0,11.0,-999,-99.99,,,-99.99,,2013-01-21 01:53:00,
2013-01-20 20:00:00,61.0,-99.9,30.14,East,101,9.0,11.0,-999,-99.99,,,-99.99,,2013-01-21 02:00:00,
2013-01-20 20:34:00,61.0,-99.9,30.14,East,101,9.0,11.0,-999,-99.99,,,-99.99,,2013-01-21 02:34:00,
2013-01-20 20:43:00,61.0,-99.9,30.14,East,101,9.0,11.0,-999,-99.99,,,-99.99,,2013-01-21 02:43:00,
2013-01-20 20:53:00,61.0,-99.9,30.14,East,101,9.0,11.0,-999,-99.99,,,-99.99,,2013-01-21 02:53:00,
2013-01-20 21:00:00,60.0,-99.9,30.14,ESE,102,9.0,10.0,-999,-99.99,,,-99.99,,2013-01-21 03:00:00,
2013-01-20 21:33:00,60.0,-99.9,30.14,ESE,102,9.0,10.0,-999,-99.99,,,-99.99,,2013-01-21 03:33:00,
2013-01-20 21:44:00,60.0,-99.9,30.14,ESE,102,9.0,10.0,-999,-99.99,,,-99.99,,2013-01-21 03:44:00,
2013-01-20 21:54:00,60.0,-99.9,30.14,ESE,102,9.0,10.0,-999,-99.99,,,-99.99,,2013-01-21 03:54:00,
2013-01-20 22:00:00,60.0,-99.9,30.14,East,99,7.0,9.0,-999,-99.99,,,-99.99,,2013-01-21 04:00:00,
2013-01-20 22:33:00,60.0,-99.9,30.14,East,99,7.0,9.0,-999,-99.99,,,-99.99,,2013-01-21 04:33:00,
2013-01-20 22:43:00,60.0,-99.9,30.14,East,99,7.0,9.0,-999,-99.99,,,-99.99,,2013-01-21 04:43:00,
2013-01-20 22:53:00,60.0,-99.9,30.14,East,99,7.0,9.0,-999,-99.99,,,-99.99,,2013-01-21 04:53:00,
2013-01-20 23:00:00,59.0,-99.9,30.14,ESE,103,7.0,9.0,-999,-99.99,,,-99.99,,2013-01-21 05:00:00,
2013-01-20 23:34:00,59.0,-99.9,30.14,ESE,103,7.0,9.0,-999,-99.99,,,-99.99,,2013-01-21 05:34:00,
2013-01-20 23:43:00,59.0,-99.9,30.14,ESE,103,7.0,9.0,-999,-99.99,,,-99.99,,2013-01-21 05:43:00,
2013-01-20 23:53:00,59.0,-99.9,30.14,ESE,103,7.0,9.0,-999,-99.99,,,-99.99,,2013-01-21 05:53:00,